Weather History for Blackpool, United Kingdom

Change the Weather History Date:

Thursday, January 24, 2013

  Actual Average Record
Temperature  
Mean Temperature 34 °F -  
Max Temperature 37 °F 44 °F 50 °F (2003)
Min Temperature 29 °F 36 °F 29 °F (2013)
Degree Days  
Heating Degree Days 31    
Moisture  
Dew Point 31 °F    
Average Humidity 85    
Maximum Humidity 93    
Minimum Humidity 70    
Precipitation  
Precipitation 0.00 in - - ()
Sea Level Pressure  
Sea Level Pressure 30.06 in    
Wind  
Wind Speed 6 mph ()    
Max Wind Speed 13 mph    
Max Gust Speed -    
Visibility 4.9 miles    
Events      
Averages and records for this station are not official NWS values.
T = Trace of Precipitation, MM = Missing Value Source: Averaged Metar Reports

Daily Weather History Graph

Daily Weather History Graph

Search for Another Location

Airport:

Trip Planner

Search our weather history database for the weather conditions in past years. The results will help you decide how hot, cold, wet, or windy it might be!

Date:

Astronomy

Jan. 24, 2013 Rise Set
Actual Time 8:10 AM GMT 4:38 PM GMT
Civil Twilight 7:30 AM GMT 5:18 PM GMT
Nautical Twilight 6:47 AM GMT 6:01 PM GMT
Astronomical Twilight 6:06 AM GMT 6:43 PM GMT
Moon 2:21 PM GMT (1/24) 6:04 AM GMT (1/24)
Length of Visible Light 9h 47m
Length of Day
8h 27m
Waxing Gibbous, 93% of the Moon is Illuminated
Jan 24
Waxing Gibbous
Jan 27
Full
Feb 3
Last Quarter
Feb 10
New
Feb 17
First Quarter

Hourly Weather History & Observations

Time (GMT) Temp. Windchill Dew Point Humidity Pressure Visibility Wind Dir Wind Speed Gust Speed Precip Events Conditions
2:50 AM 31 °F - 29 °F 90%  in - ENE 4.6 mph - -  
5:50 AM 33 °F - 30 °F 82%  in - East 5.8 mph - -  
6:20 AM 33.8 °F 30.8 °F 30.2 °F 87% 30.01 in 5.6 mi East 3.5 mph - N/A   Unknown
6:50 AM 33.8 °F 29.6 °F 32.0 °F 93% 30.01 in 5.6 mi East 4.6 mph - N/A   Mostly Cloudy
7:20 AM 33.8 °F 29.6 °F 30.2 °F 87% 30.01 in 5.6 mi East 4.6 mph - N/A   Overcast
7:50 AM 33.8 °F 29.6 °F 32.0 °F 93% 30.04 in 4.3 mi ESE 4.6 mph - N/A   Overcast
8:20 AM 33.8 °F 29.6 °F 32.0 °F 93% 30.04 in 3.7 mi ESE 4.6 mph - N/A   Overcast
8:50 AM 33 °F - 30 °F 86%  in - ESE 5.8 mph - -  
8:50 AM 33.8 °F 29.6 °F 32.0 °F 93% 30.04 in 3.7 mi ESE 4.6 mph - N/A   Mostly Cloudy
9:20 AM 33.8 °F 29.6 °F 32.0 °F 93% 30.06 in 3.7 mi ESE 4.6 mph - N/A   Overcast
9:50 AM 33.8 °F 29.6 °F 32.0 °F 93% 30.06 in 3.7 mi ESE 4.6 mph - N/A   Overcast
10:20 AM 33.8 °F 28.6 °F 32.0 °F 93% 30.06 in 4.3 mi ESE 5.8 mph - N/A   Overcast
10:50 AM 33.8 °F 28.6 °F 32.0 °F 93% 30.06 in 4.3 mi ESE 5.8 mph - N/A   Overcast
11:20 AM 35.6 °F 30.7 °F 32.0 °F 87% 30.06 in 5.6 mi SE 5.8 mph - N/A   Overcast
11:50 AM 36 °F - 30 °F 71%  in - SE 8.1 mph - -  
11:50 AM 35.6 °F 29.9 °F 32.0 °F 87% 30.06 in 5.6 mi SE 6.9 mph - N/A   Mostly Cloudy
12:20 PM 35.6 °F 30.7 °F 32.0 °F 87% 30.06 in 5.6 mi ESE 5.8 mph - N/A   Mostly Cloudy
12:50 PM 37.4 °F 31.4 °F 32.0 °F 81% 30.06 in 5.6 mi SE 8.1 mph - N/A   Partly Cloudy
1:20 PM 37.4 °F 32.1 °F 32.0 °F 81% 30.06 in 5.6 mi SSE 6.9 mph - N/A   Partly Cloudy
1:50 PM 37.4 °F 29.8 °F 32.0 °F 81% 30.06 in 5.6 mi SSE 11.5 mph - N/A   Scattered Clouds
2:20 PM 37.4 °F 30.8 °F 32.0 °F 81% 30.06 in 5.6 mi SSE 9.2 mph - N/A   Scattered Clouds
2:50 PM 36 °F - 30 °F 70%  in - SSE 10.4 mph - -  
2:50 PM 35.6 °F 28.0 °F 30.2 °F 81% 30.06 in 6.2 mi SSE 10.4 mph - N/A   Scattered Clouds
3:20 PM 35.6 °F 30.7 °F 32.0 °F 87% 30.09 in 6.2 mi SSE 5.8 mph - N/A   Scattered Clouds
3:50 PM 35.6 °F 30.7 °F 32.0 °F 87% 30.09 in 6.2 mi SSE 5.8 mph - N/A   Mostly Cloudy
4:20 PM 35.6 °F 29.9 °F 32.0 °F 87% 30.09 in 4.3 mi SSE 6.9 mph - N/A   Overcast
4:50 PM 35.6 °F 29.2 °F 32.0 °F 87% 30.09 in 3.7 mi SSE 8.1 mph - N/A   Overcast
5:20 PM 33.8 °F 27.7 °F 30.2 °F 87% 30.09 in 3.7 mi SSE 6.9 mph - N/A   Overcast
5:50 PM 34 °F - 30 °F 78%  in - SE 9.2 mph - -  
5:50 PM 35.6 °F 28.6 °F 32.0 °F 87% 30.09 in 3.7 mi SE 9.2 mph - N/A   Overcast
6:20 PM 33.8 °F 27.7 °F 30.2 °F 87% 30.09 in 3.7 mi SSE 6.9 mph - N/A   Overcast
7:20 PM 33.8 °F 25.8 °F 30.2 °F 87% 30.09 in 3.7 mi SSE 10.4 mph - N/A   Overcast
7:50 PM 33.8 °F 25.3 °F 28.4 °F 81% 30.09 in 5.0 mi SSE 11.5 mph - N/A   Overcast
8:20 PM 33.8 °F 25.3 °F 28.4 °F 81% 30.09 in 5.6 mi SSE 11.5 mph - N/A   Overcast
8:50 PM 32 °F - 26 °F 71%  in - SSE 12.7 mph - -  
8:50 PM 32.0 °F 22.5 °F 26.6 °F 80% 30.09 in 5.6 mi SSE 12.7 mph - N/A   Overcast
11:50 PM 29 °F - 23 °F 71%  in - SE 11.5 mph - -